Other Public Products
Issued by NWS Grand Forks, ND

Home | Current Version | Previous Version | Graphics & Text | Print | Product List | Glossary On
Versions: 1 2 3 4 5 6 7 8 9 10 11 12 13 14 15 16 17 18 19 20 21 22 23 24 25 26 27 28 29 30 31 32 33 34 35 36 37 38 39 40 41 42 43 44 45 46 47 48 49 50
000
FPUS83 KFGF 281031
OPUFGF
PRAIRIE TO PINES WEATHER ROUNDUP
NATIONAL WEATHER SERVICE EASTERN NORTH DAKOTA/GRAND FORKS ND
400 AM CST WED JAN 28 2015

 **SATELLITE DATA USED TO AUGMENT SKY COVER AT AUTOMATED STATIONS**
 *****  WEATHER ACROSS EASTERN NORTH DAKOTA  *****

CITY           SKY/WX    TMP DP  RH WIND       PRES   REMARKS
GRAND FORKS    CLOUDY    34  32  92 S12       29.82F FOG
GRAND FORKS AF CLOUDY    32  32 100 S12       29.81F FOG     WCI  23
GRAND CITY NWS NOT AVBL
BUXTON           N/A     33  33  99 SE12        N/A  WCI  24
DEVILS LAKE    CLOUDY    32  30  93 S9        29.75R VSB 1/2 WCI  24
FARGO          CLOUDY    35  31  85 S18G28    29.83F WCI  24
WAHPETON ARPT  CLOUDY    32  30  93 S16       29.84F WCI  21
$$

 *****  WEATHER ACROSS CENTRAL AND WESTERN NORTH DAKOTA  *****

CITY           SKY/WX    TMP DP  RH WIND       PRES   REMARKS
JAMESTOWN      FOG       32  32 100 S9        29.75F VSB 1/4 WCI  24
BISMARCK       CLEAR     28  27  96 N3        29.74F
MINOT          CLOUDY    29  27  92 NW9       29.73F FOG     WCI  20
MINOT AFB      CLOUDY    28  28 100 N8        29.74S FOG     WCI  20
GARRISON         N/A     29  27  92 CALM      29.71F
WILLISTON      MOCLDY    30  28  92 CALM      29.73F
DICKINSON      PTCLDY    36  30  79 W8        29.71F
HETTINGER      MOCLDY    33  28  81 CALM      29.75F
$$

 *****  OTHER OBSERVATIONS NORTHEAST NORTH DAKOTA  *****

CITY           SKY/WX    TMP DP  RH WIND       PRES   REMARKS
WALHALLA       FOG       32  32 100 SE5       29.81F VSB 1/2
LANGDON        FOG       32  32 100 SE7       29.77S VSB 1/4
CAVALIER       FOG       32  32 100 SE6       29.82S VSB 1/2
GRAFTON        NOT AVBL
CANDO          FOG       32  32 100 SE5       29.76S VSB 1/2
FORT TOTTEN      N/A     31  31 100 S8        29.95S WCI  23
ROLLA          FOG       30  30 100 NE7       29.76S VSB 1/4 WCI  23
RUGBY          FOG       28  28 100 E5        29.74S VSB 1/4 WCI  23
 ***** THE ABOVE OBSERVATIONS ARE NON NWS ARE NOT QUALITY
        CONTROLLED AND MAY MIS-REPORT RAIN FOR SNOW...
$$

 *****  OTHER OBSERVATIONS SOUTHEAST NORTH DAKOTA *****

CITY           SKY/WX    TMP DP  RH WIND       PRES   REMARKS
COOPERSTOWN    NOT AVBL
VALLEY CITY    FOG       32  32 100 SE8       29.78S VSB 1/4 WCI  25
OAKES            N/A     28  28 100 E7        29.77F FOG     WCI  21
GWINNER        CLOUDY    32  32 100 CALM      29.80F VSB 1/4
BUFFALO        NOT AVBL
WYNDMERE         N/A     34  34 100 S12         N/A
 ***** THE ABOVE OBSERVATIONS ARE NON NWS ARE NOT QUALITY
       CONTROLLED AND MAY MIS-REPORT RAIN FOR SNOW...
$$

  *****  WEATHER ACROSS NORTHERN MINNESOTA  *****

CITY           SKY/WX    TMP DP  RH WIND       PRES   REMARKS
FLAG ISLAND    CLOUDY    28  25  86 SE6       29.91S WCI  22
WARROAD        CLOUDY    30  27  86 SE8       29.89F FOG     WCI  23
ROSEAU         CLOUDY    30  27  86 SE9       29.87F HAZE    WCI  22
HALLOCK        CLOUDY    34  30  86 SE10      29.83F FOG
THF RVR FALLS  CLOUDY    30  28  93 SE8       29.85F WCI  23
HALSTAD          N/A     34  30  86 S17         N/A  WCI  23
FOSSTON        CLOUDY    30  28  93 SE10      29.84F WCI  21
BAUDETTE       CLOUDY    28  24  85 SE7       29.90F WCI  21
WASKISH        CLOUDY    30  27  86 SE7       29.90F WCI  23
CROOKSTON      CLOUDY    34  32  93 S15       29.84F WCI  24
$$
  *****  WEATHER ACROSS CENTRAL AND WEST MINNESOTA  *****

CITY           SKY/WX    TMP DP  RH WIND       PRES   REMARKS
BEMIDJI        CLOUDY    30  28  92 SE9       29.89F WCI  22
PARK RAPIDS    CLOUDY    31  29  92 SE14      29.88F WCI  21
WADENA         CLOUDY    30  28  93 SE12      29.89  WCI  21
DETROIT LAKES  CLOUDY    32  32 100 S14       29.86S WCI  22
MOORHEAD       CLOUDY    34  34 100 S15       29.85R WCI  24
FERGUS FALLS   CLOUDY    32  30  93 S18G24    29.88F WCI  20
ELBOW LAKE     CLOUDY    32  31  95 SE20G29   29.86S WCI  20
MORRIS MN      CLOUDY    34  30  86 SE23      29.86F FOG     WCI  22
STAPLES        CLOUDY    28  28 100 S9G16     29.91S FOG     WCI  20
WHEATON        CLOUDY    30  28  93 SE16G23   29.86F WCI  19
$$
  *****  WEATHER ELSEWHERE ACROSS MINNESOTA  *****

CITY           SKY/WX    TMP DP  RH WIND       PRES   REMARKS
DULUTH         CLOUDY    24  19  81 S13       30.02S WCI  12
INTRNTL FALLS  CLOUDY    26  23  88 SE7       29.95F WCI  18
ELY            CLOUDY    27  23  86 S7        30.00F WCI  19
CLOQUET        CLOUDY    25  21  86 SE7       30.01F WCI  17
BRAINERD       CLOUDY    29  27  92 S12       29.95F FOG     WCI  19
HIBBING        CLOUDY    27  22  81 VRB6      29.98F WCI  20
ALEXANDRIA     CLOUDY    32  29  88 SE20G25   29.89F WCI  20
SAINT CLOUD    CLOUDY    30  28  92 SE15      29.99F WCI  19
MINNEAPOLIS    CLOUDY    29  25  85 SE14      30.05F WCI  18
$$

  *****  WEATHER ACROSS SOUTH DAKOTA  *****

CITY           SKY/WX    TMP DP  RH WIND       PRES   REMARKS
SIOUX FALLS    PTCLDY    34  30  85 SE10      29.86F
BROOKINGS      NOT AVBL
WATERTOWN      MOCLDY    33  30  88 S12       29.79F WCI  24
HURON          CLEAR     34  30  85 S12       29.76F
SISSETON         N/A     32  32 100 S14       29.83F WCI  22
ABERDEEN       CLEAR     32  28  85 SE3       29.77F
MITCHELL       PTCLDY    35  31  85 S14       29.79F
PIERRE         MOCLDY    31  30  96 CALM      29.69F
MOBRIDGE       CLOUDY    32  30  92 N5        29.70F
RAPID CITY     MOCLDY    43  27  53 N8        29.77S
$$

  *****  SOME WEATHER IN NEARBY STATES *****

CITY           SKY/WX    TMP DP  RH WIND       PRES   REMARKS
GLASGOW MT     MOCLDY    33  30  88 W7        29.77R
GREAT FALLS MT CLOUDY    46  29  51 W14       29.94R
CHEYENNE WY    CLOUDY    46  29  51 W16G26    30.02R
SCOTTSBLUFF NE   N/A    N/A N/A N/A MISG      29.93F
OMAHA NE       PTCLDY    36  30  79 SE13      29.93F
DES MOINES IA  CLOUDY    31  27  85 SE12      30.07F FOG     WCI  22
DAVENPORT IA   CLOUDY    27  23  85 S12       30.20F WCI  17
CHICAGO IL     MOCLDY    23  19  85 CALM      30.26S
EAU CLAIRE WI  CLOUDY    25  20  81 SE9       30.11F WCI  15
LA CROSSE WI   CLOUDY    28  22  78 S10       30.16F WCI  19
$$

  *****  SOME NATIONAL WEATHER *****

CITY           SKY/WX    TMP DP  RH WIND       PRES   REMARKS
LA GUARDIA NY  PTCLDY    18   3  52 NW18      29.92S WCI   2
RALEIGH NC     MOCLDY    27  12  53 CALM      30.09R
ATLANTA GA     CLEAR     33  24  69 NW12      30.15R WCI  24
NEW ORLEANS LA CLEAR     50  39  66 NE8       30.19F
OKLAHOMA CITY  CLEAR     47  36  65 SE9       30.01F
ALBUQUERQUE NM PTCLDY    35  29  78 E7        30.25S
SALT LAKE CITY CLOUDY    47  34  60 S8        30.19R
LOS ANGELES CA MOCLDY    57  50  77 CALM      30.18R
BOISE ID       FOG       35  34  96 N3        30.24R VSB 1/4
SEATTLE WA     CLOUDY    47  44  90 CALM      30.32R
$$

*** WEATHER ACROSS MANITOBA...SASKATCHEWAN AND ONTARIO ***
                ***ONTARIO***

CITY           SKY/WX    TMP DP  RH WIND       PRES   REMARKS
GERALDTON      CLOUDY    23  21  93 SW7       30.05F WCI  15
THUNDER BAY    CLOUDY    25  23  93 NE5       30.10S WCI  19
SIOUX LOOKOUT  CLOUDY    25  25 100 S3        29.97S
TORONTO        CLEAR     10   1  67 N7        30.20R WCI   0
BIG TROUT LK   CLEAR     -2  -6  84 NW3       30.12R
PICKLE LAKE    NOT AVBL
DRYDEN         CLOUDY    25  25 100 SE7       29.95F WCI  17
KENORA         CLOUDY    27  25  93 SE5       29.92F WCI  21
$$
                *** MANITOBA***

CITY           SKY/WX    TMP DP  RH WIND       PRES   REMARKS
BRANDON        FOG       27  27 100 NE18      29.83S VSB 3/8 WCI  13
DAUPHIN        FRZ RAIN  23  23 100 NE13      29.92F VSB 5/8 WCI  11
ISLAND LAKE    FLURRIES   9   5  85 N9        30.12R WCI  -5
PILOT MOUND      N/A     30  30 100 E5          N/A
THE PAS        LGT SNOW   5   0  78 NE7       30.11S WCI  -7
THOMPSON       PTCLDY   -13 -20  70 N8        30.21R WCI -30
WINNIPEG       FRZ DRZL  30  28  93 E9        29.87F FOG     WCI  22
LYNN LAKE      CLOUDY   -17 -22  76 N6        30.20R WCI -31
CHURCHILL      CRYSTALS -17 -22  76 NW21G28   30.20R BLWGSNOWWCI -44
GILLAM         CLEAR    -17 -24  70 NW9       30.23R WCI -36
$$
                ***SASKATCHEWAN***

CITY           SKY/WX    TMP DP  RH WIND       PRES   REMARKS
ESTEVAN        CLOUDY    28  27  93 E12       29.74F WCI  18
KINDERSLEY     FLURRIES  27  27 100 N10       29.91R WCI  17
LLOYDMINSTER   CLOUDY    21  19  93 NW6       29.94R WCI  14
PRINCE ALBERT  FLURRIES  12   9  85 E14       29.98R WCI  -3
REGINA         CLOUDY    28  28 100 E13       29.77F WCI  18
YORKTON        CLOUDY    23  21  93 NE14      29.86F WCI  11


USA.gov is the U.S. government's official web portal to all federal, state and local government web resources and services.